This demonstration page uses our WeatherBlox Daily Observations layout. Learn more.

Left ArrowRight Arrow

34.02893, -84.19858

Hourly Observations for August 4, 2015

Temp ( °F °C ) Dew Point ( °F °C ) Humidity (%) Winds ( mph kmh ) Pressure ( in mb ) Visibility ( mi km ) Precip ( " mm )
12:53 am 00:53 Clear 77 25 67 19.4 71 71 Calm 29.90 1012 10 16 0.00 0.00
1:53 am 01:53 Clear 75 23.9 68 20 79 79 SE 3 6 29.90 1013 10 16 0.00 0.00
2:53 am 02:53 Clear 76 24.4 65 18.3 69 69 NNE 5 7 29.89 1012 10 16 0.00 0.00
3:53 am 03:53 Clear 73 22.8 65 18.3 76 76 SSE 3 6 29.90 1013 10 16 0.00 0.00
4:53 am 04:53 Clear 71 21.7 68 20 90 90 Calm 29.91 1013 10 16 0.00 0.00
5:53 am 05:53 Clear 70 21.1 67 19.4 90 90 Calm 29.92 1013 10 16 0.00 0.00
6:53 am 06:53 Sunny 70 21.1 67 19.4 90 90 Calm 29.94 1014 10 16 0.00 0.00
7:53 am 07:53 Sunny 74 23.3 66 18.9 76 76 N 6 9 29.95 1014 10 16 0.00 0.00
8:53 am 08:53 Sunny 81 27.2 66 18.9 61 61 N 5 7 29.96 1015 10 16 0.00 0.00
9:53 am 09:53 Sunny 86 30 64 17.8 48 48 N 3 6 29.96 1015 10 16 0.00 0.00
10:53 am 10:53 Sunny 91 32.8 65 18.3 42 42 Calm 29.96 1015 10 16 0.00 0.00
11:53 am 11:53 Sunny 93 33.9 63 17.2 37 37 NW 5 7 29.96 1015 10 16 0.00 0.00
12:53 pm 12:53 Sunny 96 35.6 60 15.6 30 30 VRB 3 6 29.96 1015 10 16 0.00 0.00
1:53 pm 13:53 Sunny 96 35.6 61 16.1 31 31 VRB 3 6 29.96 1014 10 16 0.00 0.00
2:53 pm 14:53 Sunny 97 36.1 58 14.4 27 27 ESE 8 13 29.94 1014 10 16 0.00 0.00
3:53 pm 15:53 Sunny 98 36.7 57 13.9 25 25 SSW 10 17 29.92 1013 10 16 0.00 0.00
4:53 pm 16:53 Sunny 97 36.1 57 13.9 26 26 Calm 29.91 1013 10 16 0.00 0.00
5:53 pm 17:53 Sunny 96 35.6 58 14.4 28 28 S 6 9 29.91 1013 10 16 0.00 0.00
6:53 pm 18:53 Sunny 96 35.6 58 14.4 28 28 S 5 7 29.90 1013 10 16 0.00 0.00
7:53 pm 19:53 Sunny 93 33.9 58 14.4 31 31 SSE 6 9 29.91 1013 10 16 0.00 0.00
8:53 pm 20:53 Clear 86 30 60 15.6 42 42 SW 5 7 29.92 1013 10 16 0.00 0.00
9:53 pm 21:53 Clear 80 26.7 62 16.7 54 54 Calm 29.94 1014 10 16 0.00 0.00
10:53 pm 22:53 Clear 81 27.2 64 17.8 57 57 Calm 29.95 1014 10 16 0.00 0.00
11:53 pm 23:53 Clear 78 25.6 65 18.3 64 64 Calm 29.96 1015 10 16 0.00 0.00

Powered by AerisWeather